Regional Weather Roundup
Issued by NWS Mobile, AL

Home | Current Version | Previous Version | Text Only | Print | Product List | Glossary On
Versions: 1 2 3 4 5 6 7 8 9 10 11 12 13 14 15 16 17 18 19 20 21 22 23 24 25 26 27 28 29 30 31 32 33 34 35 36 37 38 39 40 41 42 43 44 45 46 47 48 49 50
000
ASUS44 KMOB 311314
RWRMOB
REGIONAL WEATHER ROUNDUP
NATIONAL WEATHER SERVICE MOBILE AL
800 AM CDT MON AUG 31 2015

ALZ061>064-311400-
COASTAL ALABAMA


CITY           SKY/WX    TMP DP  RH WIND       PRES   REMARKS
MOBILE REG APT MOSUNNY   75  71  87 NW3       30.07R
BROOKLEY FIELD SUNNY     78  71  79 NW6       30.07R
GULF SHORES    NOT AVBL

$$

ALZ051>060-311400-
INTERIOR SOUTHWEST AND SOUTH CENTRAL ALABAMA


CITY           SKY/WX    TMP DP  RH WIND       PRES   REMARKS
ANDALUSIA/OPP  SUNNY     76  69  79 SE6       30.07R
EVERGREEN      SUNNY     72  69  90 CALM      30.07R
FLORALA        SUNNY     74  69  85 CALM      30.08R
GREENVILLE     NOT AVBL

$$

FLZ001>006-311400-
WESTERN FLORIDA PANHANDLE


CITY           SKY/WX    TMP DP  RH WIND       PRES   REMARKS
CRESTVIEW      SUNNY     74  69  85 CALM      30.07R
DESTIN         SUNNY     80  71  74 NE3       30.05R
DUKE FIELD     NOT AVBL
MARY ESTHER    SUNNY     76  70  83 VRB3      30.04R
MILTON         MOSUNNY   77  71  82 CALM      30.06R
PENSACOLA      SUNNY     77  70  79 N5        30.05R
NAS PENSACOLA  MOSUNNY   77  72  84 N3        30.04R
VALPARAISO     MOSUNNY   77  68  74 N3        30.05R

$$

...MARINE OBSERVATIONS...

STATION/POSITION TIME  SKY/WX   TEMP    WIND        PRES    VSBY
                                AIR SEA DIR/SP/G
                 (UTC)          (F)     (DEG/KT/KT) (MB)    (MI)
GRAND BAY        1145            72     360/  4     1018.0
E DAUPHIN ISLAND 1300            81     330/  8/  8 1017.5R
MIDDLE BAY LIGHT 1200                   330/  9     1016.3R
MEAHER PARK      1200            75      10/  1     1016.9R
12 S ORANGE BCH  1250            81 85  350/  8/ 10 1016.9R
WVE H/P(F/S)=  1/ 6

64 S DAUPHIN ISL 1250            82 85  350/  6/  8 1017.7R
WVE H/P(F/S)=  1/ 7

115 SE PENSACOLA 1250            85 86   40/ 10/ 12 1016.7R
WVE H/P(F/S)=  1/ 6

MID GULF/42001   1300            84 85   90/  6/  8 1016.6R
EAST GULF/42003  1250            85 86   10/  4/  6 1015.2R
WVE H/P(F/S)=  2/ 4


$$

...NEARBY LOCATIONS

CITY           SKY/WX    TMP DP  RH WIND       PRES   REMARKS
GULFPORT       MOSUNNY   76  70  82 CALM      30.05R
BILOXI         MOSUNNY   75  71  85 NE2       30.05R
PASCAGOULA     SUNNY     74  71  91 CALM      30.06R
HATTIESBURG    SUNNY     73  68  84 CALM      30.09R HAZE
LAUREL         SUNNY     73  66  78 NW5       30.09S
MERIDIAN       SUNNY     72  68  87 CALM      30.09R
MERIDIAN NAS   MOSUNNY   68  66  93 E3        30.09R FOG
MONTGOMERY     PTSUNNY   75  70  84 N3        30.09R
MAXWELL AFB    PTSUNNY   74  71  91 NE3       30.08R
TROY           FOG       69  68  96 NE6       30.09R VSB 1/4
FORT RUCKER    MOSUNNY   74  70  87 CALM      30.06R
DALEVILLE      MOSUNNY   71  70  98 E5        30.06R FOG
DOTHAN         FOG       71  71 100 E7        30.10R VSB 1/4

$$

...OTHER SURROUNDING LOCATIONS...

CITY           SKY/WX    TMP DP  RH WIND       PRES   REMARKS
BIRMINGHAM     CLOUDY    70  68  93 E6        30.13R FOG
TUSCALOOSA     CLOUDY    71  69  93 NE3       30.10R FOG
COLUMBUS GA    CLOUDY    74  70  87 E8        30.08S
PANAMA CITY    NOT AVBL
TALLAHASSEE    CLOUDY    76  73  91 N5        30.05R FOG
BATON ROUGE    SUNNY     73  71  93 NE5       30.06R
NEW ORLEANS    PTSUNNY   80  72  76 CALM      30.06R
SLIDELL        SUNNY     72  70  93 CALM      30.06R
JACKSON        MOSUNNY   75  69  81 CALM      30.08R
MCCOMB         SUNNY     73  71  93 N5        30.08R

$$

...SURROUNDING MARINE OBSERVATIONS...

STATION/POSITION TIME  SKY/WX   TEMP    WIND        PRES    VSBY
                                AIR SEA DIR/SP/G
                 (UTC)          (F)     (DEG/KT/KT) (MB)    (MI)
SOUTHWEST PASS   1300                                 N/A
TYNDALL TOWER C  1300            85      50/  4/  4 1016.5R
S APLCHCLA/42036 1250            85 86   90/  4/  6 1016.3R
WVE H/P(F/S)=  1/ 3


$$



USA.gov is the U.S. government's official web portal to all federal, state and local government web resources and services.